Vaxjo, Sweden

1:08 PM CEST on May 29, 2017 (GMT +0200)
Kronoberg

Weather History for ESMX - March, 2014

Change the Weather History Date:

Sunday, March 30, 2014

  Actual Average Record
Temperature  
Mean Temperature 42 °F -  
Max Temperature 60 °F - - ()
Min Temperature 24 °F - - ()
Degree Days  
Heating Degree Days 23    
Moisture  
Dew Point 28 °F    
Average Humidity 62    
Maximum Humidity 100    
Minimum Humidity 27    
Precipitation  
Precipitation 0.00 in - - ()
Sea Level Pressure  
Sea Level Pressure 30.08 in    
Wind  
Wind Speed 2 mph ()    
Max Wind Speed 7 mph    
Max Gust Speed -    
Visibility 6.1 miles    
Events Fog    
T = Trace of Precipitation, MM = Missing Value Source: Averaged Metar Reports

Daily Weather History Graph

Daily Weather History Graph

Search for Another Location

Airport or City:

Trip Planner

Search our weather history database for the weather conditions in past years. The results will help you decide how hot, cold, wet, or windy it might be!

Date:

Astronomy

Mar. 30, 2014 Rise Set
Actual Time 6:36 AM CEST 7:35 PM CEST
Civil Twilight 5:57 AM CEST 8:14 PM CEST
Nautical Twilight 5:10 AM CEST 9:02 PM CEST
Astronomical Twilight 4:18 AM CEST 9:55 PM CEST
Moon 6:16 AM CEST (3/30) 7:31 PM CEST (3/30)
Length of Visible Light 14h 17m
Length of Day
12h 59m
Waning Crescent, 0% of the Moon is Illuminated
Mar 30
Waning Crescent
Mar 30
New
Apr 7
First Quarter
Apr 15
Full
Apr 22
Last Quarter

Hourly Weather History & Observations

Time (CEST) Temp. Windchill Dew Point Humidity Pressure Visibility Wind Dir Wind Speed Gust Speed Precip Events Conditions
12:20 AM 28.4 °F - 26.6 °F 93% 30.24 in 6.2 mi Calm Calm - N/A   Unknown
12:50 AM 28.4 °F - 26.6 °F 93% 30.21 in 6.2 mi Calm Calm - N/A   Unknown
1:20 AM 28.4 °F - 24.8 °F 86% 30.21 in 6.2 mi Calm Calm - N/A   Unknown
1:50 AM 26.6 °F - 24.8 °F 93% 30.21 in 6.2 mi Calm Calm - N/A   Unknown
3:20 AM 26.6 °F - 24.8 °F 93% 30.21 in 6.2 mi Calm Calm - N/A   Unknown
3:50 AM 26.6 °F 22.6 °F 24.8 °F 93% 30.21 in 6.2 mi SSW 3.5 mph - N/A   Unknown
4:20 AM 26.6 °F - 24.8 °F 93% 30.18 in 6.2 mi South 1.2 mph - N/A   Unknown
4:50 AM 26.6 °F - 24.8 °F 93% 30.18 in 6.2 mi Calm Calm - N/A   Unknown
5:20 AM 24.8 °F - 23.0 °F 93% 30.18 in 6.2 mi Calm Calm - N/A   Unknown
5:50 AM 24.8 °F - 23.0 °F 93% 30.18 in 6.2 mi Calm Calm - N/A   Unknown
6:20 AM 24.8 °F - 23.0 °F 93% 30.15 in 6.2 mi Calm Calm - N/A   Unknown
6:50 AM 24.8 °F - 24.8 °F 100% 30.15 in 6.2 mi Calm Calm - N/A Fog Patches of Fog
7:20 AM 24.8 °F - 23.0 °F 93% 30.15 in 4.3 mi Calm Calm - N/A Fog Patches of Fog
7:50 AM 26.6 °F - 24.8 °F 93% 30.15 in - Calm Calm - N/A   Clear
8:20 AM 33.8 °F - 32.0 °F 93% 30.15 in 6.2 mi Calm Calm - N/A   Unknown
8:50 AM 37.4 °F - 35.6 °F 93% 30.15 in 6.2 mi Calm Calm - N/A   Unknown
9:20 AM 42.8 °F - 32.0 °F 66% 30.15 in 6.2 mi Calm Calm - N/A   Unknown
9:50 AM 46.4 °F 44.3 °F 30.2 °F 53% 30.12 in 6.2 mi West 4.6 mph - N/A   Unknown
10:20 AM 50.0 °F - 30.2 °F 47% 30.12 in 6.2 mi West 3.5 mph - N/A   Unknown
10:50 AM 53.6 °F - 30.2 °F 41% 30.12 in 6.2 mi Variable 2.3 mph - N/A   Unknown
11:20 AM 55.4 °F - 26.6 °F 33% 30.12 in 6.2 mi Calm Calm - N/A   Unknown
11:50 AM 55.4 °F - 26.6 °F 33% 30.12 in 6.2 mi WNW 3.5 mph - N/A   Unknown
12:20 PM 55.4 °F - 28.4 °F 36% 30.09 in 6.2 mi Variable 4.6 mph - N/A   Unknown
12:50 PM 57.2 °F - 26.6 °F 31% 30.09 in 6.2 mi West 4.6 mph - N/A   Unknown
1:20 PM 59.0 °F - 28.4 °F 31% 30.09 in 6.2 mi West 5.8 mph - N/A   Unknown
1:50 PM 59.0 °F - 28.4 °F 31% 30.06 in 6.2 mi WNW 4.6 mph - N/A   Unknown
2:20 PM 59.0 °F - 26.6 °F 29% 30.06 in 6.2 mi NNW 6.9 mph - N/A   Unknown
2:50 PM 59.0 °F - 26.6 °F 29% 30.06 in - WNW 5.8 mph - N/A   Clear
3:20 PM 60.8 °F - 26.6 °F 27% 30.04 in - WNW 5.8 mph - N/A   Clear
3:50 PM 59.0 °F - 26.6 °F 29% 30.04 in - WNW 6.9 mph - N/A   Clear
4:20 PM 59.0 °F - 24.8 °F 27% 30.04 in - WNW 5.8 mph - N/A   Clear
4:50 PM 59.0 °F - 24.8 °F 27% 30.01 in - NW 5.8 mph - N/A   Clear
5:20 PM 59.0 °F - 24.8 °F 27% 30.01 in - WSW 3.5 mph - N/A   Clear
5:50 PM 59.0 °F - 24.8 °F 27% 30.01 in - WNW 5.8 mph - N/A   Clear
6:20 PM 57.2 °F - 24.8 °F 29% 30.01 in - West 5.8 mph - N/A   Clear
6:50 PM 57.2 °F - 26.6 °F 31% 30.01 in - West 4.6 mph - N/A   Clear
7:20 PM 51.8 °F - 28.4 °F 41% 29.98 in - WSW 4.6 mph - N/A   Clear
7:50 PM 48.2 °F - 30.2 °F 50% 29.98 in - WSW 4.6 mph - N/A   Clear
8:20 PM 44.6 °F 43.1 °F 30.2 °F 57% 29.98 in - WSW 3.5 mph - N/A   Clear
8:50 PM 42.8 °F 40.1 °F 30.2 °F 61% 29.98 in - WSW 4.6 mph - N/A   Clear
9:20 PM 41.0 °F 37.1 °F 30.2 °F 65% 29.98 in - WSW 5.8 mph - N/A   Clear
9:50 PM 44.6 °F 41.4 °F 32.0 °F 61% 29.98 in 6.2 mi WNW 5.8 mph - N/A   Unknown
10:20 PM 41.0 °F 39.0 °F 32.0 °F 70% 29.98 in - Variable 3.5 mph - N/A   Clear
10:50 PM 41.0 °F 39.0 °F 32.0 °F 70% 29.98 in - NNW 3.5 mph - N/A   Clear
11:20 PM 39.2 °F 37.0 °F 32.0 °F 75% 29.98 in - NNE 3.5 mph - N/A   Clear
11:50 PM 37.4 °F 33.8 °F 32.0 °F 81% 29.98 in - NNE 4.6 mph - N/A   Clear
12:20 AM 37.4 °F 32.1 °F 32.0 °F 81% 29.98 in 6.2 mi NNE 6.9 mph - N/A   Unknown
12:50 AM 35.6 °F 32.8 °F 32.0 °F 87% 29.98 in - North 3.5 mph - N/A   Clear